Date String (YYYY-MM-DD hh:mm:ss) UTC,Instrument flags,absolute air pressure of the measurement (hPa),sample flow rate (lpm),inlet stack bypass flow (lpm),air temperature of the measurement (°C),ambient temperature measured by the external sensor (°C),aerosol sample conditioner tube jacket temperature (°C),OPC LED temperature (°C),internal box temperature (°C),relative humidity of the measurement (%),span deviation,mass concentration of particles derived from Lorenz-Mie calculation of OPC scattering (μg/m³),mass concentration of particles derived from Lorenz-Mie calculation of OPC scattering (μg/m³),mass concentration of particles derived from Lorenz-Mie calculation of OPC scattering (μg/m³)
DateTimeUTC,F1_M11,P_M11,Q1_M11,Q2_M11,T1_M11,T2_M11,T3_M11,T4_M11,T5_M11,U1_M11,ZSPAN_M11,X0_M11,X2_M11,X1_M11
2023-07-14 00:00:00,SystemResetWarning,0829.3,5.00,000.00,028.6,025.5,000.0,036.9,030.0,21.6,0000.0,0009.06,0003.12,0002.37
2023-07-14 00:01:00,SystemResetWarning,0829.3,5.00,000.00,028.6,026.0,000.0,036.9,030.1,21.2,0000.0,0008.61,0003.11,0002.38
2023-07-14 00:02:00,SystemResetWarning,0829.4,5.00,000.00,028.7,026.4,000.0,036.9,030.3,21.9,0000.0,0008.56,0003.10,0002.36
2023-07-14 00:03:00,SystemResetWarning,0829.4,5.01,000.00,028.7,026.8,000.0,036.9,030.4,21.1,0000.0,0007.73,0003.07,0002.33
2023-07-14 00:04:00,SystemResetWarning,0829.4,4.99,000.00,028.7,027.2,000.0,037.0,030.5,21.2,0000.0,0007.34,0003.01,0002.33
2023-07-14 00:05:00,SystemResetWarning,0829.3,4.99,000.00,028.8,027.5,000.0,037.0,030.6,21.9,0000.0,0006.39,0002.98,0002.31
2023-07-14 00:06:00,SystemResetWarning,0829.3,4.99,000.00,028.9,027.0,000.0,037.0,030.6,20.9,0000.0,0006.37,0003.00,0002.31
2023-07-14 00:07:00,SystemResetWarning,0829.2,5.01,000.00,028.8,025.3,000.0,036.9,030.2,21.3,0000.0,0006.55,0003.06,0002.32
2023-07-14 00:08:00,SystemResetWarning,0829.1,4.99,000.00,028.7,024.8,000.0,036.8,030.1,22.3,0000.0,0006.67,0003.04,0002.32
2023-07-14 00:09:00,SystemResetWarning,0829.1,5.01,000.00,028.6,025.2,000.0,036.8,030.0,23.5,0000.0,0006.52,0003.02,0002.32
2023-07-14 00:10:00,SystemResetWarning,0829.0,5.01,000.00,028.6,025.6,000.0,036.9,030.0,23.2,0000.0,0007.34,0003.05,0002.33
2023-07-14 00:11:00,SystemResetWarning,0828.9,5.00,000.00,028.6,026.1,000.0,036.9,030.2,22.4,0000.0,0007.84,0003.09,0002.36
2023-07-14 00:12:00,SystemResetWarning,0828.9,5.01,000.00,028.7,026.5,000.0,036.9,030.3,22.5,0000.0,0007.82,0003.11,0002.40
2023-07-14 00:13:00,SystemResetWarning,0829.0,5.00,000.00,028.7,026.9,000.0,037.0,030.4,22.3,0000.0,0007.73,0003.12,0002.45
2023-07-14 00:14:00,SystemResetWarning,0828.9,5.00,000.00,028.8,027.3,000.0,037.0,030.5,23.2,0000.0,0007.86,0003.17,0002.49
2023-07-14 00:15:00,SystemResetWarning,0829.0,5.00,000.00,028.8,027.4,000.0,037.0,030.6,23.7,0000.0,0008.18,0003.21,0002.55
2023-07-14 00:16:00,SystemResetWarning,0829.0,4.99,000.00,028.8,026.2,000.0,036.9,030.4,22.3,0000.0,0008.28,0003.30,0002.63
2023-07-14 00:17:00,SystemResetWarning,0828.9,5.01,000.00,028.7,024.9,000.0,036.9,030.1,22.9,0000.0,0008.35,0003.38,0002.73
2023-07-14 00:18:00,SystemResetWarning,0828.8,5.01,000.00,028.7,025.0,000.0,036.8,030.1,24.3,0000.0,0008.96,0003.46,0002.82
2023-07-14 00:19:00,SystemResetWarning,0828.9,5.00,000.00,028.6,025.3,000.0,036.8,030.0,24.2,0000.0,0010.01,0003.55,0002.95
2023-07-14 00:20:00,SystemResetWarning,0829.0,4.99,000.00,028.6,025.8,000.0,036.9,030.1,25.7,0000.0,0010.85,0003.67,0003.09
2023-07-14 00:21:00,SystemResetWarning,0829.0,5.00,000.00,028.6,026.3,000.0,036.9,030.2,24.4,0000.0,0011.06,0003.79,0003.18
2023-07-14 00:22:00,SystemResetWarning,0828.9,5.01,000.00,028.7,026.7,000.0,036.9,030.3,24.8,0000.0,0010.83,0003.87,0003.22
2023-07-14 00:23:00,SystemResetWarning,0829.0,4.99,000.00,028.7,027.1,000.0,037.0,030.5,25.6,0000.0,0011.51,0003.93,0003.28
2023-07-14 00:24:00,SystemResetWarning,0829.0,5.00,000.00,028.8,027.4,000.0,037.0,030.5,25.7,0000.0,0011.82,0004.02,0003.33
2023-07-14 00:25:00,SystemResetWarning,0828.9,5.00,000.00,028.8,027.2,000.0,037.0,030.5,26.3,0000.0,0012.15,0004.12,0003.38
2023-07-14 00:26:00,SystemResetWarning,0828.9,4.99,000.00,028.8,025.6,000.0,036.9,030.3,25.8,0000.0,0012.02,0004.17,0003.42
2023-07-14 00:27:00,SystemResetWarning,0828.8,5.01,000.00,028.7,024.8,000.0,036.8,030.1,26.1,0000.0,0012.56,0004.19,0003.45
2023-07-14 00:28:00,SystemResetWarning,0828.8,5.01,000.00,028.6,025.1,000.0,036.8,030.0,25.9,0000.0,0012.45,0004.21,0003.47
2023-07-14 00:29:00,SystemResetWarning,0828.8,5.00,000.00,028.6,025.5,000.0,036.9,030.0,26.2,0000.0,0012.30,0004.24,0003.48
2023-07-14 00:30:00,SystemResetWarning,0828.8,5.00,000.00,028.6,026.0,000.0,036.9,030.1,27.3,0000.0,0011.56,0004.31,0003.50
2023-07-14 00:31:00,SystemResetWarning,0828.9,5.00,000.00,028.6,026.5,000.0,036.9,030.2,26.9,0000.0,0011.05,0004.32,0003.50
2023-07-14 00:32:00,SystemResetWarning,0828.9,5.00,000.00,028.7,026.9,000.0,037.0,030.4,26.0,0000.0,0010.62,0004.32,0003.50
2023-07-14 00:33:00,SystemResetWarning,0828.8,5.00,000.00,028.7,027.2,000.0,037.0,030.5,25.5,0000.0,0010.64,0004.34,0003.51
2023-07-14 00:34:00,SystemResetWarning,0828.9,5.00,000.00,028.8,027.1,000.0,037.0,030.5,25.5,0000.0,0010.33,0004.37,0003.52
2023-07-14 00:35:00,SystemResetWarning,0828.8,4.99,000.00,028.8,025.6,000.0,036.9,030.3,25.1,0000.0,0011.37,0004.40,0003.55
2023-07-14 00:36:00,SystemResetWarning,0828.8,5.01,000.00,028.7,024.7,000.0,036.8,030.1,25.2,0000.0,0011.69,0004.40,0003.56
2023-07-14 00:37:00,SystemResetWarning,0828.8,5.01,000.00,028.6,025.0,000.0,036.8,030.0,25.7,0000.0,0011.74,0004.42,0003.56
2023-07-14 00:38:00,SystemResetWarning,0828.8,4.99,000.00,028.6,025.4,000.0,036.8,029.9,25.1,0000.0,0011.95,0004.47,0003.58
2023-07-14 00:39:00,SystemResetWarning,0828.8,4.99,000.00,028.6,025.8,000.0,036.9,030.0,25.4,0000.0,0012.25,0004.53,0003.60
2023-07-14 00:40:00,SystemResetWarning,0828.8,5.00,000.00,028.6,026.3,000.0,036.9,030.2,25.1,0000.0,0012.50,0004.56,0003.61
2023-07-14 00:41:00,SystemResetWarning,0828.8,5.01,000.00,028.6,026.7,000.0,036.9,030.3,25.0,0000.0,0013.16,0004.57,0003.63
2023-07-14 00:42:00,SystemResetWarning,0828.8,4.99,000.00,028.7,027.1,000.0,036.9,030.4,25.3,0000.0,0014.35,0004.58,0003.64
2023-07-14 00:43:00,SystemResetWarning,0828.7,4.99,000.00,028.8,027.4,000.0,037.0,030.5,25.1,0000.0,0014.39,0004.56,0003.65
2023-07-14 00:44:00,SystemResetWarning,0828.8,5.00,000.00,028.8,026.6,000.0,036.9,030.4,25.4,0000.0,0015.10,0004.58,0003.67
2023-07-14 00:45:00,SystemResetWarning,0828.7,5.00,000.00,028.7,025.0,000.0,036.8,030.1,25.6,0000.0,0015.75,0004.61,0003.69
2023-07-14 00:46:00,SystemResetWarning,0828.7,5.01,000.00,028.6,024.7,000.0,036.8,030.0,26.4,0000.0,0015.38,0004.65,0003.70
2023-07-14 00:47:00,SystemResetWarning,0828.8,5.01,000.00,028.6,025.1,000.0,036.8,029.9,26.8,0000.0,0015.06,0004.69,0003.73
2023-07-14 00:48:00,SystemResetWarning,0828.8,4.99,000.00,028.5,025.5,000.0,036.8,029.9,27.7,0000.0,0014.92,0004.68,0003.75
2023-07-14 00:49:00,SystemResetWarning,0828.8,4.99,000.00,028.6,026.0,000.0,036.9,030.1,28.4,0000.0,0015.29,0004.71,0003.77
2023-07-14 00:50:00,SystemResetWarning,0828.8,5.00,000.00,028.6,026.5,000.0,036.9,030.2,28.6,0000.0,0014.48,0004.64,0003.78
2023-07-14 00:51:00,SystemResetWarning,0828.8,5.01,000.00,028.6,026.9,000.0,036.9,030.3,27.6,0000.0,0014.56,0004.61,0003.79
2023-07-14 00:52:00,SystemResetWarning,0828.8,4.99,000.00,028.7,027.2,000.0,036.9,030.5,28.2,0000.0,0015.40,0004.58,0003.78
2023-07-14 00:53:00,SystemResetWarning,0828.8,4.99,000.00,028.8,027.3,000.0,036.9,030.5,28.1,0000.0,0015.33,0004.56,0003.76
2023-07-14 00:54:00,SystemResetWarning,0828.8,5.00,000.00,028.8,026.0,000.0,036.9,030.4,27.6,0000.0,0015.06,0004.60,0003.76
2023-07-14 00:55:00,SystemResetWarning,0828.8,5.00,000.00,028.7,024.7,000.0,036.8,030.2,27.9,0000.0,0015.08,0004.60,0003.76
2023-07-14 00:56:00,SystemResetWarning,0828.8,5.00,000.00,028.6,024.8,000.0,036.8,030.0,27.8,0000.0,0014.86,0004.60,0003.76
2023-07-14 00:57:00,SystemResetWarning,0828.8,5.01,000.00,028.5,025.2,000.0,036.8,029.9,28.0,0000.0,0015.70,0004.60,0003.75
2023-07-14 00:58:00,SystemResetWarning,0828.8,4.99,000.00,028.5,025.7,000.0,036.8,030.0,28.1,0000.0,0015.09,0004.57,0003.73
2023-07-14 00:59:00,SystemResetWarning,0828.9,5.00,000.00,028.6,026.2,000.0,036.9,030.2,28.3,0000.0,0015.37,0004.57,0003.72
